Olive Branch, MS

4:52 AM CST on November 18, 2017 (GMT -0600)
Olive Branch

Weather History for KOLV - April, 2013

Change the Weather History Date:

Saturday, April 27, 2013

  Actual Average (KMEM) Record (KMEM)
Temperature  
Mean Temperature 63 °F -  
Max Temperature 73 °F 76 °F 92 °F (1987)
Min Temperature 53 °F 57 °F 40 °F (1953)
Degree Days  
Heating Degree Days 2    
Growing Degree Days 13 (Base 50)    
Moisture  
Dew Point 58 °F    
Average Humidity 96    
Maximum Humidity 100    
Minimum Humidity 88    
Precipitation  
Precipitation 0.00 in - - ()
Sea Level Pressure  
Sea Level Pressure 30.07 in    
Wind  
Wind Speed 8 mph (SE)    
Max Wind Speed 14 mph    
Max Gust Speed 18 mph    
Visibility 9 miles    
Events Rain , Thunderstorm    
Averages and records for this station are not official NWS values.
T = Trace of Precipitation, MM = Missing Value Source: NWS Daily Summary

Daily Weather History Graph

Daily Weather History Graph

Search for Another Location

Airport or City:

Trip Planner

Search our weather history database for the weather conditions in past years. The results will help you decide how hot, cold, wet, or windy it might be!

Date:

Astronomy

Apr. 27, 2013 Rise Set
Actual Time 6:12 AM CDT 7:41 PM CDT
Civil Twilight 5:45 AM CDT 8:08 PM CDT
Nautical Twilight 5:13 AM CDT 8:40 PM CDT
Astronomical Twilight 4:39 AM CDT 9:14 PM CDT
Moon 10:06 PM CDT (4/27) 7:34 AM CDT (4/27)
Length of Visible Light 14h 22m
Length of Day
13h 29m
Waning Gibbous, 95% of the Moon is Illuminated
Apr 27
Waning Gibbous
May 2
Last Quarter
May 9
New
May 17
First Quarter
May 24
Full

Hourly Weather History & Observations

Time (CDT) Temp. Dew Point Humidity Pressure Visibility Wind Dir Wind Speed Gust Speed Precip Events Conditions
12:15 AM 53.6 °F 51.8 °F 94% 30.23 in 9.0 mi East 11.5 mph 16.1 mph 0.00 in   Overcast
12:35 AM 53.6 °F 50.0 °F 88% 30.23 in 10.0 mi East 8.1 mph - 0.00 in   Overcast
12:55 AM 53.6 °F 50.0 °F 88% 30.23 in 10.0 mi East 8.1 mph - 0.00 in   Overcast
1:15 AM 53.6 °F 50.0 °F 88% 30.23 in 10.0 mi East 8.1 mph - 0.00 in   Overcast
1:35 AM 53.6 °F 50.0 °F 88% 30.22 in 10.0 mi ENE 6.9 mph - 0.00 in   Overcast
1:55 AM 53.6 °F 51.8 °F 94% 30.22 in 8.0 mi ENE 9.2 mph - 0.00 in   Overcast
2:15 AM 53.6 °F 51.8 °F 94% 30.20 in 10.0 mi East 11.5 mph - 0.00 in   Overcast
2:35 AM 53.6 °F 51.8 °F 94% 30.17 in 9.0 mi ESE 12.7 mph 18.4 mph 0.00 in   Mostly Cloudy
2:55 AM 53.6 °F 51.8 °F 94% 30.16 in 9.0 mi ESE 8.1 mph - 0.00 in   Scattered Clouds
3:15 AM 53.6 °F 51.8 °F 94% 30.15 in 10.0 mi East 8.1 mph - 0.00 in   Scattered Clouds
3:35 AM 53.6 °F 51.8 °F 94% 30.14 in 10.0 mi ESE 9.2 mph - 0.00 in   Scattered Clouds
3:55 AM 53.6 °F 51.8 °F 94% 30.13 in 10.0 mi ESE 9.2 mph - 0.00 in   Mostly Cloudy
4:15 AM 53.6 °F 51.8 °F 94% 30.12 in 10.0 mi ESE 9.2 mph - 0.00 in   Mostly Cloudy
4:35 AM 53.6 °F 51.8 °F 94% 30.12 in 10.0 mi ESE 6.9 mph - 0.00 in   Mostly Cloudy
4:55 AM 53.6 °F 51.8 °F 94% 30.11 in 10.0 mi ESE 8.1 mph - 0.00 in   Overcast
5:15 AM 53.6 °F 51.8 °F 94% 30.10 in 10.0 mi SE 6.9 mph - 0.00 in   Overcast
5:35 AM 53.6 °F 51.8 °F 94% 30.09 in 9.0 mi SE 6.9 mph - 0.00 in   Overcast
6:50 AM 53.6 °F 53.6 °F 100% 30.11 in 5.0 mi Calm Calm - N/A Rain , Thunderstorm Light Thunderstorms and Rain
6:55 AM 53.6 °F 53.6 °F 100% 30.10 in 10.0 mi Calm Calm - 0.00 in   Overcast
7:23 AM 53.6 °F 53.6 °F 100% 30.12 in 4.0 mi NE 4.6 mph - N/A Rain Light Rain
7:50 AM 53.6 °F 53.6 °F 100% 30.14 in 4.0 mi Calm Calm - N/A Rain Light Rain
8:50 AM 53.6 °F 53.6 °F 100% 30.12 in 4.0 mi ESE 5.8 mph - N/A   Overcast
9:50 AM 55.4 °F 55.4 °F 100% 30.09 in 6.0 mi SE 9.2 mph - N/A   Overcast
10:50 AM 60.8 °F 60.8 °F 100% 30.09 in 6.0 mi South 6.9 mph - N/A   Overcast
11:55 AM 66.2 °F 66.2 °F 100% 30.09 in 7.0 mi SSW 6.9 mph - N/A   Overcast
1:50 PM 69.8 °F 69.8 °F 100% 30.05 in 8.0 mi SSW 10.4 mph - N/A   Overcast
2:50 PM 66.2 °F 66.2 °F 100% 30.03 in 8.0 mi SSW 11.5 mph - N/A   Overcast
3:50 PM 69.8 °F 68.0 °F 94% 29.99 in 10.0 mi SSW 13.8 mph - N/A   Mostly Cloudy
4:50 PM 71.6 °F 69.8 °F 94% 29.97 in 10.0 mi SW 9.2 mph - N/A   Mostly Cloudy
5:50 PM 73.4 °F - N/A% 29.94 in 10.0 mi SSW 11.5 mph - N/A   Mostly Cloudy
6:50 PM 69.8 °F 68.0 °F 94% 29.94 in 10.0 mi SSW 8.1 mph - N/A   Mostly Cloudy
7:50 PM 68.0 °F 68.0 °F 100% 29.90 in 10.0 mi South 5.8 mph - N/A   Mostly Cloudy
9:15 PM 68.0 °F 66.2 °F 94% 29.91 in 10.0 mi Calm Calm - 0.00 in   Scattered Clouds
9:35 PM 66.2 °F 66.2 °F 100% 29.91 in 10.0 mi SW 5.8 mph - 0.00 in   Mostly Cloudy
9:55 PM 68.0 °F 66.2 °F 94% 29.92 in 10.0 mi WSW 5.8 mph - 0.00 in   Overcast
10:15 PM 68.0 °F 66.2 °F 94% 29.94 in 10.0 mi West 5.8 mph - 0.00 in   Mostly Cloudy
10:35 PM 64.4 °F 64.4 °F 100% 29.94 in 10.0 mi WNW 11.5 mph - 0.00 in   Scattered Clouds
10:55 PM 64.4 °F 64.4 °F 100% 29.96 in 9.0 mi NW 4.6 mph - 0.00 in   Scattered Clouds
11:15 PM 62.6 °F 62.6 °F 100% 29.96 in 9.0 mi WNW 10.4 mph - 0.00 in   Overcast
11:35 PM 62.6 °F 62.6 °F 100% 29.96 in 9.0 mi NW 8.1 mph - 0.00 in   Overcast
11:55 PM 60.8 °F 60.8 °F 100% 29.98 in 10.0 mi West 8.1 mph - 0.00 in   Overcast